Location: Bjelajci
(45.0103°N, 16.1758°E)
Time: 01:21:05
(UTC+00:00)

Daily predictions for brighter satellites

Satellite Brightness Start Highest point End
(mag) Time Altitude Azimuth Time Altitude Azimuth Time Altitude Azimuth
Abrixas rocket 3.4 00:03:46 36° NNE 00:03:46 36° NNE 00:06:07 10° ENE
SL-8 R/B 3.6 00:08:39 59° SSW 00:09:15 65° SSE 00:14:02 10° ENE
Cosmos 2242 Rocket 3.5 00:06:01 10° N 00:10:37 80° W 00:11:25 60° S
Spot 1 4.3 00:09:49 45° SSE 00:11:20 83° ENE 00:16:02 10° NNW
Lacrosse 5 2.9 00:10:39 18° W 00:14:04 43° NNW 00:18:55 10° NE
IRAS Rocket 4.2 00:11:58 34° SSE 00:14:27 81° ENE 00:19:58 10° NNW
SL-16 R/B 2.8 00:11:55 22° SSE 00:16:00 66° ENE 00:22:13 10° N
Cosmos 1602 3.6 00:17:36 69° WSW 00:17:47 71° W 00:21:38 10° N
BREEZE-M DEB (TANK) 3.3 00:14:00 10° W 00:21:42 83° N 00:24:53 10° E
Meteor 1-4 Rocket 3.7 00:18:35 10° NNW 00:21:27 31° WNW 00:21:27 31° WNW
Meteor 2-4 Rocket 4.2 00:16:54 10° N 00:22:47 61° ENE 00:26:30 23° SSE
Okean 1 3.2 00:19:54 10° NNW 00:23:51 63° W 00:24:06 61° WSW
Cosmos 1933 Rocket 3.8 00:23:25 47° WSW 00:24:06 52° WNW 00:28:22 10° N
Meteor 1-14 Rocket 4.1 00:22:26 42° S 00:24:28 89° E 00:30:10 10° N
Iridium 4 Rocket 4.3 00:24:13 34° WSW 00:25:53 43° W 00:31:00 10° N
MOZ.5/SAFIR/RUBIN 5/SL-8 3.7 00:25:51 44° S 00:27:22 85° WSW 00:32:11 10° NNW
Cosmos 1190 Rocket 4.4 00:26:21 36° SSE 00:28:11 55° ESE 00:33:19 10° NNE
Cosmos 1869 Rocket 3.6 00:27:34 47° SSE 00:28:39 67° E 00:32:59 10° NNE
USA 267 4.2 00:32:12 25° WSW 00:32:12 25° WSW 00:37:07 10° WNW
SAR-Lupe-3 4.4 00:28:25 10° NNE 00:32:02 78° ESE 00:32:23 68° SSE
Helios 1B rocket 3.9 00:28:43 10° NNW 00:32:05 25° WNW 00:33:01 23° W
Cosmos 1697 Rocket 3.5 00:28:13 10° NNW 00:33:42 51° ENE 00:39:09 10° SE
NOSS 2-1 (C) 4.5 00:28:51 10° NW 00:34:09 60° SW 00:39:01 21° SSE
Cosmos 1437 Rocket 2.9 00:32:46 10° N 00:36:49 72° E 00:38:00 43° SSE
Cosmos 1703 Rocket 3.7 00:32:48 10° NNW 00:37:11 58° W 00:38:05 48° SW
Cosmos 2221 Rocket 4.5 00:35:01 10° N 00:39:16 44° ENE 00:42:00 20° SE
SeaSat 1 2.8 00:38:13 10° NE 00:43:06 56° ESE 00:45:02 34° S
Cosmos 2082 Rocket 3.3 00:40:40 22° SSE 00:43:36 36° ESE 00:48:47 10° NE
Cosmos 614 Rocket 4.0 00:43:22 38° SW 00:45:14 66° WNW 00:50:22 10° NNE
Aureole 1 Rocket 3.8 00:43:26 34° SSE 00:45:16 57° ESE 00:51:02 10° NNE
IRS-1D 4.3 00:41:38 10° NNE 00:46:20 42° E 00:49:01 23° SSE
CZ-2D R/B 2.1 00:41:17 10° NNE 00:46:41 88° ESE 00:49:08 34° SSW
CZ-4B R/B 3.9 00:41:54 10° NNE 00:46:51 54° E 00:49:15 28° SSE
Cosmos 1833 Rocket 2.9 00:44:54 33° S 00:47:23 64° ESE 00:52:57 10° NNE
DELTA 2 DEB (DPAF) 4.4 00:46:51 42° SW 00:47:48 51° W 00:52:10 10° NNW
Cosmos 2100 Rocket 4.2 00:45:06 32° SW 00:47:57 60° WNW 00:54:08 10° N
IKONOS-2 4.4 00:48:10 38° SSE 00:49:47 88° WSW 00:54:03 10° NNW
Cosmos 1184 Rocket 4.5 00:49:58 22° WNW 00:49:58 22° WNW 00:52:35 10° NNW
COSMOS 2406 3.2 00:49:39 34° SSW 00:52:18 82° WNW 00:58:07 10° NNE
Cosmos 405 Rocket 3.4 00:52:44 36° W 00:53:20 39° WNW 00:56:54 10° N
Cosmos 1656 3.5 00:48:08 10° NNW 00:53:32 66° WSW 00:56:32 27° S
Cosmos 1140 Rocket 3.4 00:52:12 35° SSW 00:54:26 86° ESE 00:59:43 10° NNE
Cosmos 2346 Rocket 4.4 00:48:52 10° N 00:55:03 83° W 00:58:52 25° S
Cosmos 1459 Rocket 4.2 00:52:49 31° SW 00:55:37 56° WNW 01:01:42 10° N
Cosmos 407 Rocket 3.6 00:55:13 34° SW 00:57:35 70° WNW 01:02:57 10° NNE
Cosmos 1500 3.2 00:58:26 47° SW 00:59:17 63° W 01:03:04 10° N
Cosmos 2233 Rocket 4.4 00:55:03 19° SSE 00:59:25 58° E 01:05:33 10° NNE
CBERS-1 4.5 00:54:36 10° NNE 00:59:40 56° E 01:02:41 24° S
Cosmos 220 Rocket 4.1 00:57:37 10° NNW 01:01:46 53° WSW 01:02:53 40° SSW
Cosmos 1802 Rocket 4.3 01:03:01 28° SSW 01:06:23 59° WNW 01:12:45 10° N
CZ-4C R/B 3.9 01:11:31 34° WSW 01:12:03 36° W 01:15:30 10° NNW
Meteor 1-13 Rocket 4.2 01:08:38 10° NNW 01:14:25 82° W 01:18:39 18° S
Cosmos 1666 2.6 01:13:10 34° S 01:14:42 83° E 01:18:29 10° N
ARIANE 5 R/B 3.6 01:13:57 10° NNE 01:18:44 39° E 01:23:10 12° SSE
Okean 1-7 4.3 01:15:18 10° NW 01:18:51 24° W 01:19:46 22° WSW
Cosmos 676 Rocket 4.0 01:16:40 27° SSW 01:19:35 89° WNW 01:24:56 10° NNE
Cosmos 1725 Rocket 4.1 01:21:06 24° SSW 01:24:52 60° WNW 01:31:04 10° N
ADEOS II 2.1 01:19:40 10° NNE 01:24:58 79° ESE 01:28:37 20° S
NPP 4.0 01:20:31 10° N 01:25:44 51° WNW 01:28:51 23° SW
SL-08 R/B 3.8 01:23:16 10° SSE 01:27:57 63° ENE 01:32:45 10° N
Resurs 1-4 Rocket 2.9 01:24:23 10° N 01:29:20 40° WNW 01:32:21 21° WSW
Cosmos 1743 4.0 01:27:28 13° SSE 01:30:34 37° E 01:34:08 10° NNE
Cosmos 1733 Rocket 2.9 01:29:34 25° SSW 01:32:03 80° W 01:36:24 10° N
ISS -2.6 01:29:58 10° NW 01:33:13 45° NNE 01:36:28 10° E
AQUA 4.3 01:29:07 10° N 01:33:41 47° WNW 01:36:23 23° SW
Abrixas rocket 1.9 01:36:07 10° WNW 01:39:00 78° NNE 01:41:54 10° ESE
Tsikada Rocket 4.3 01:33:53 10° NNW 01:40:06 53° W 01:45:05 16° SSW
ATLAS 5 CENTAUR R/B 2.5 01:37:59 10° NW 01:43:43 80° NE 01:50:22 10° SE
Gbstr 26 Del rocket 3.1 01:41:37 10° WNW 01:45:51 85° SSW 01:51:02 10° SE
Cosmos 1242 Rocket 3.1 01:44:30 10° N 01:47:54 56° ENE 01:51:20 10° SSE
Cosmos 2369 4.0 01:43:11 10° NW 01:48:39 48° WSW 01:54:07 10° S
Cosmos 1980 Rocket 2.1 01:43:52 10° NNW 01:49:35 79° WSW 01:55:15 10° SSE
SL-8 R/B 4.2 01:47:07 10° W 01:51:54 60° N 01:56:40 10° ENE
deb Kosmos-1763 4.2 01:50:14 23° SW 01:52:16 58° WNW 01:55:51 10° NNE
Meteor 2-11 Rocket 4.4 01:48:22 13° S 01:53:52 86° W 01:59:59 10° N
Cosmos 1378 3.1 01:53:32 10° N 01:57:19 85° E 02:01:03 10° S
IRS-P3 4.2 01:52:13 10° N 01:57:32 68° WNW 02:01:59 15° SSW
Lacrosse 5 4.1 01:54:12 10° WNW 01:58:08 22° N 02:02:04 10° NE
SL-16 R/B 3.8 01:57:01 16° SW 02:00:06 22° W 02:04:51 10° NW
IDEFIX/ARIANE 42P 3.1 01:55:27 10° NNE 02:00:35 57° E 02:05:40 10° S
Cosmos 1975 Rocket 4.5 01:57:56 10° N 02:02:07 40° ENE 02:06:19 10° SE
BREEZE-M DEB (TANK) 4.3 02:00:22 10° W 02:03:45 42° SSW 02:15:20 10° SE
Cosmos 1536 3.9 02:02:53 17° SW 02:05:20 30° WNW 02:08:57 10° NNW
Cosmos 1464 Rocket 4.3 02:00:36 10° S 02:06:56 75° E 02:13:18 10° NNE
Cosmos 1356 4.0 02:04:45 18° SW 02:06:57 42° WNW 02:10:16 10° N
Meteor 1-11 Rocket 4.5 02:04:11 15° SW 02:08:13 36° WNW 02:13:18 10° N
Cosmos 2278 4.0 02:03:38 10° NW 02:09:07 49° WSW 02:14:35 10° S
H-2A R/B 2.5 02:04:50 10° SSE 02:09:11 65° ENE 02:13:27 10° N
SL-16 R/B 3.2 02:06:26 10° NNW 02:11:59 51° ENE 02:17:29 10° SE
Cosmos 921 Rocket 3.9 02:09:50 10° NW 02:13:39 29° W 02:17:11 11° SSW
Cosmos 1975 3.3 02:10:55 10° S 02:14:50 61° E 02:18:47 10° NNE
CZ-2C R/B 3.3 02:13:15 10° NNE 02:17:17 62° E 02:21:17 10° S
Cosmos 1697 Rocket 3.7 02:12:47 10° NW 02:17:19 26° WSW 02:21:50 10° SSW
Cosmos 2034 Rocket 4.4 02:11:38 10° S 02:17:40 64° E 02:23:47 10° NNE
Cosmos 1263 4.3 02:16:35 10° NNW 02:19:30 52° W 02:22:33 10° S
SeaSat 1 4.0 02:16:18 10° N 02:20:18 25° NW 02:24:17 10° WSW
CZ-2C R/B 4.2 02:17:21 10° NE 02:21:28 28° E 02:25:27 10° SSE
Cosmos 1378 Rocket 4.1 02:19:25 10° NNW 02:23:33 41° W 02:27:42 10° SSW
Cosmos 1842 3.6 02:20:15 10° N 02:24:11 70° E 02:28:08 10° SSE
SL-27 R/B 3.0 02:21:18 10° S 02:24:44 55° ESE 02:28:09 10° NNE
CZ-2D R/B 4.1 02:23:02 10° NNW 02:26:00 15° WNW 02:29:00 10° W
CZ-4C R/B 2.7 02:23:48 10° SSE 02:27:01 86° WSW 02:30:12 10° NNW
NOSS 3-2 (A) 3.8 02:21:47 10° SSW 02:27:18 59° ESE 02:33:35 10° NE
Cosmos 2082 Rocket 3.1 02:22:31 11° WSW 02:27:39 38° NW 02:32:59 10° NNE
Cosmos 1763 Rocket 3.7 02:25:52 10° NNW 02:31:00 54° WSW 02:36:09 10° S
Cosmos 1833 Rocket 4.2 02:27:19 10° WSW 02:31:48 24° NW 02:36:17 10° N
ERS-2 2.1 02:29:53 10° S 02:33:30 69° WSW 02:37:09 10° NNW
Meteor 1-28 Rocket 4.2 02:31:46 10° SSW 02:34:58 27° W 02:38:12 10° NW
Meteor 1-21 4.5 02:32:17 10° N 02:38:08 83° E 02:43:58 10° SSE
SL-19 R/B 3.6 02:35:38 10° N 02:38:33 71° WNW 02:41:43 10° SSW
Okean 2 3.4 02:34:54 10° NNW 02:38:57 64° W 02:42:58 10° S
CZ-2D R/B 4.1 02:40:04 10° N 02:44:13 43° WNW 02:48:14 10° SW
Cosmos 1570 Rocket 4.0 02:39:09 10° NNW 02:44:24 72° WSW 02:49:40 10° SSE
Cosmos 1271 Rocket 3.0 02:43:35 10° NNW 02:47:13 46° W 02:50:48 10° S
Cosmos 1025 Rocket 4.4 02:44:47 10° N 02:48:58 44° ENE 02:53:05 10° SSE
